Location: Blazny
(46.0612°N, 84.4033°W)
Time: 21:12:01
(UTC-04:00)

Envisat - Pass Details

Date: 23 September 2024
Orbit: 762 x 764 km, 98.3° (Epoch: 11 October)

Event Time Altitude Azimuth Distance (km) Brightness Sun altitude
Rises 03:26:03 0° 31° (NNE) 3,235 7.2 -37.6°
Reaches altitude 10° 03:29:26 10° 54° (NE) 2,303 6.2 -37.3°
Maximum altitude 03:32:16 15° 88° (E) 1,976 5.5 -37.0°
Enters shadow 03:32:29 15° 91° (E) 1,977 5.4 -36.9°
